map of NGO home
NGO - Airport
Location
City:  Nagoya, Aichi, Japan
Near (Alt.):Tokoname
Name:Chubu Centrair International Airport
Old (Alt.):Central Japan International Airport
ICAO:RJGG
IATA:NGO

Details
Type:Airport (Aerodrome, Airfield)
Use:Public/Civil, International (customs port of entry)
Latitude:34°51'30"N (34.858414)
Longitude:136°48'19"E (136.805408)
Datum:WGS 1984
Elevation:15 ft (5 m)
Variation:7.62°W (WMM2015 magnetic declination)
-0.07° annual change
Runways:1
Longest:11483 × 197 ft (3500 × 60 m), paved

Time
Time Zone:UTC+9
Local Time:

Weather
METAR:RJGG 251530Z 12014KT 9000 NSC 24/22 Q1013 NOSIG
TAF:RJGG 251105Z 2512/2618 12006KT 9999 FEW020

Related Locations
Nearby:
Farthest:SNPV: 11924 mi / 19190 km
Mostardas [Solidão], RS, BR

Find:

   beyond  
but within

Other Information
Maps:
NOTAMs:
Links:
Sources:

  
  • flag of Japan
  • flag of Aichi
  • flag of Nagoya
  

Sectional Chart

Flight Planning
at skyvector.com

Satellite Image

Google Maps Satellite view

 

Copyright © 2004-2018 Karl L. Swartz. All rights reserved.
The Great Circle Mapper name and logo are trademarks of the Great Circle Mapper.
All other trademarks mentioned herein belong to their respective owners.
Please see credits for attibutions and further copyright information.

  Follow gcmap on Facebook Follow gcmap on Twitter Follow gcmap on Google+ GCmap on LinkedIn

hCard Microformat

Geo Microformat